| time (UTC) | temp C | wind direction | speed KPH | gust KPH | rain 1hr cm | rain 24hr cm | rain mn cm | humidity % | barometer mb |
| 20260508091117 | 12 | 139 | 4.8 | 6.4 | 0.00 | 0.00 | 0.00 | 73 | 1008.4 |
| 20260508090011 | 11 | 122 | 3.2 | 6.4 | 0.00 | 0.00 | 0.00 | 76 | 1008.2 |
| 20260508085616 | 11 | 126 | 4.8 | 6.4 | 0.00 | 0.00 | 0.00 | 76 | 1008.4 |
| 20260508084506 | 11 | 129 | 6.4 | 6.4 | 0.00 | 0.00 | 0.00 | 77 | 1007.9 |
| 20260508083607 | 10 | 128 | 6.4 | 6.4 | 0.00 | 0.00 | 0.00 | 78 | 1007.9 |
| 20260508082706 | 10 | 119 | 6.4 | 9.7 | 0.00 | 0.00 | 0.00 | 79 | 1008.0 |
| 20260508081808 | 10 | 137 | 6.4 | 6.4 | 0.00 | 0.00 | 0.00 | 80 | 1007.8 |
| 20260508080907 | 10 | 125 | 4.8 | 6.4 | 0.00 | 0.00 | 0.00 | 80 | 1007.7 |
| 20260508080009 | 10 | 127 | 4.8 | 6.4 | 0.00 | 0.00 | 0.00 | 80 | 1007.8 |
| 20260508075406 | 10 | 116 | 4.8 | 6.4 | 0.00 | 0.00 | 0.00 | 79 | 1007.7 |
| 20260508074506 | 10 | 121 | 6.4 | 6.4 | 0.00 | 0.00 | 0.00 | 79 | 1007.6 |
| 20260508073816 | 10 | 111 | 4.8 | 6.4 | 0.00 | 0.00 | 0.00 | 78 | 1007.6 |
| 20260508072708 | 10 | 121 | 3.2 | 6.4 | 0.00 | 0.00 | 0.00 | 77 | 1007.6 |
| 20260508072021 | 11 | 116 | 3.2 | 3.2 | 0.00 | 0.00 | 0.00 | 76 | 1007.2 |
| 20260508070909 | 11 | 121 | 3.2 | 6.4 | 0.00 | 0.00 | 0.00 | 75 | 1007.3 |
| 20260508070007 | 11 | 132 | 3.2 | 6.4 | 0.00 | 0.00 | 0.00 | 74 | 1007.2 |
| 20260508065406 | 10 | 130 | 4.8 | 6.4 | 0.00 | 0.00 | 0.00 | 74 | 1007.3 |
| 20260508064508 | 10 | 135 | 3.2 | 6.4 | 0.00 | 0.00 | 0.00 | 74 | 1007.1 |
| 20260508063609 | 10 | 132 | 6.4 | 6.4 | 0.00 | 0.00 | 0.00 | 75 | 1007.1 |
| 20260508062705 | 10 | 138 | 8.0 | 11.3 | 0.00 | 0.00 | 0.00 | 76 | 1006.8 |
| 20260508062016 | 9 | 144 | 8.0 | 9.7 | 0.00 | 0.00 | 0.00 | 77 | 1006.9 |
| 20260508060908 | 8 | 117 | 3.2 | 3.2 | 0.00 | 0.00 | 0.00 | 83 | 1006.7 |
| 20260508060010 | 7 | 123 | 3.2 | 3.2 | 0.00 | 0.00 | 0.00 | 84 | 1006.7 |
| 20260508055405 | 7 | 121 | 3.2 | 3.2 | 0.00 | 0.00 | 0.00 | 84 | 1006.7 |
| 20260508054507 | 7 | 123 | 3.2 | 6.4 | 0.00 | 0.00 | 0.00 | 83 | 1006.7 |
| 20260508053606 | 7 | 121 | 1.6 | 3.2 | 0.00 | 0.00 | 0.00 | 84 | 1006.5 |
| 20260508052707 | 7 | 139 | 1.6 | 6.4 | 0.00 | 0.00 | 0.00 | 85 | 1006.5 |
| 20260508051808 | 7 | 131 | 3.2 | 6.4 | 0.00 | 0.00 | 0.00 | 85 | 1006.6 |
| 20260508050907 | 7 | 116 | 4.8 | 6.4 | 0.00 | 0.00 | 0.00 | 86 | 1006.3 |
| 20260508050008 | 7 | 124 | 3.2 | 6.4 | 0.00 | 0.00 | 0.00 | 86 | 1006.5 |
| 20260508045407 | 7 | 125 | 3.2 | 6.4 | 0.00 | 0.00 | 0.00 | 86 | 1006.4 |
| 20260508044506 | 6 | 122 | 3.2 | 3.2 | 0.00 | 0.00 | 0.00 | 87 | 1006.4 |
| 20260508043605 | 6 | 126 | 3.2 | 3.2 | 0.00 | 0.00 | 0.00 | 86 | 1006.2 |
| 20260508042920 | 6 | 128 | 3.2 | 6.4 | 0.00 | 0.00 | 0.00 | 86 | 1006.3 |
| 20260508041804 | 6 | 120 | 4.8 | 6.4 | 0.00 | 0.00 | 0.00 | 86 | 1006.3 |
| 20260508040907 | 6 | 114 | 1.6 | 3.2 | 0.00 | 0.00 | 0.00 | 86 | 1006.1 |
| 20260508040008 | 7 | 112 | 1.6 | 3.2 | 0.00 | 0.00 | 0.00 | 86 | 1006.1 |
| 20260508035405 | 7 | 113 | 1.6 | 3.2 | 0.00 | 0.00 | 0.00 | 86 | 1006.3 |
| 20260508034506 | 7 | 129 | 3.2 | 3.2 | 0.00 | 0.00 | 0.00 | 86 | 1006.2 |
| 20260508033605 | 6 | 116 | 3.2 | 3.2 | 0.00 | 0.00 | 0.00 | 86 | 1006.5 |
| 20260508032705 | 6 | 117 | 3.2 | 3.2 | 0.00 | 0.00 | 0.00 | 86 | 1006.3 |
| 20260508031807 | 7 | 114 | 1.6 | 3.2 | 0.00 | 0.00 | 0.00 | 86 | 1006.3 |
| 20260508030905 | 7 | 116 | 3.2 | 3.2 | 0.00 | 0.00 | 0.00 | 86 | 1006.5 |
| 20260508030218 | 7 | 126 | 3.2 | 3.2 | 0.00 | 0.00 | 0.00 | 86 | 1006.4 |
| 20260508025412 | 7 | 117 | 1.6 | 3.2 | 0.00 | 0.00 | 0.00 | 86 | 1006.4 |
| 20260508024507 | 7 | 117 | 3.2 | 6.4 | 0.00 | 0.00 | 0.00 | 86 | 1006.2 |
| 20260508023819 | 7 | 125 | 3.2 | 3.2 | 0.00 | 0.00 | 0.00 | 85 | 1006.3 |
| 20260508022922 | 7 | 132 | 3.2 | 3.2 | 0.00 | 0.00 | 0.00 | 84 | 1006.1 |
| 20260508022019 | 7 | 147 | 1.6 | 3.2 | 0.00 | 0.00 | 0.00 | 84 | 1006.3 |
| 20260508020905 | 7 | 117 | 4.8 | 6.4 | 0.00 | 0.00 | 0.00 | 84 | 1006.1 |
| 20260508020010 | 7 | 119 | 1.6 | 3.2 | 0.00 | 0.00 | 0.00 | 83 | 1006.3 |
| 20260508015407 | 7 | 112 | 0.0 | 3.2 | 0.00 | 0.00 | 0.00 | 82 | 1006.2 |
| 20260508014505 | 7 | 0 | 0.0 | 0.0 | 0.00 | 0.00 | 0.00 | 81 | 1006.2 |
| 20260508013608 | 7 | 0 | 0.0 | 0.0 | 0.00 | 0.00 | 0.00 | 80 | 1006.2 |
| 20260508012707 | 8 | 112 | 1.6 | 3.2 | 0.00 | 0.00 | 0.00 | 79 | 1006.0 |
| 20260508011809 | 8 | 112 | 0.0 | 3.2 | 0.00 | 0.00 | 0.00 | 77 | 1006.1 |
| 20260508010907 | 8 | 112 | 0.0 | 3.2 | 0.00 | 0.00 | 0.00 | 76 | 1006.1 |
| 20260508010008 | 9 | 119 | 1.6 | 3.2 | 0.00 | 0.00 | 0.00 | 76 | 1006.0 |
| 20260508005616 | 9 | 127 | 3.2 | 3.2 | 0.00 | 0.00 | 0.00 | 76 | 1006.1 |
| 20260508004506 | 9 | 137 | 1.6 | 3.2 | 0.00 | 0.00 | 0.00 | 76 | 1006.1 |
| 20260508003820 | 8 | 152 | 1.6 | 3.2 | 0.00 | 0.00 | 0.00 | 77 | 1006.1 |
| 20260508002705 | 8 | 128 | 3.2 | 3.2 | 0.00 | 0.00 | 0.00 | 78 | 1006.2 |
| 20260508001807 | 8 | 135 | 1.6 | 3.2 | 0.00 | 0.00 | 0.00 | 79 | 1006.2 |
| 20260508000905 | 8 | 135 | 0.0 | 3.2 | 0.00 | 0.00 | 0.00 | 79 | 1006.3 |
| 20260508000006 | 8 | 147 | 1.6 | 3.2 | 0.00 | 0.00 | 0.00 | 79 | 1006.4 |
| 20260507235406 | 8 | 136 | 3.2 | 3.2 | 0.00 | 0.00 | 0.00 | 79 | 1006.4 |
| 20260507234506 | 9 | 136 | 3.2 | 3.2 | 0.00 | 0.00 | 0.00 | 78 | 1006.1 |
| 20260507233816 | 9 | 127 | 3.2 | 6.4 | 0.00 | 0.00 | 0.00 | 78 | 1006.3 |
| 20260507232707 | 9 | 118 | 3.2 | 6.4 | 0.00 | 0.00 | 0.00 | 76 | 1006.1 |
| 20260507231807 | 10 | 136 | 1.6 | 3.2 | 0.00 | 0.00 | 0.00 | 74 | 1006.5 |
| 20260507230906 | 10 | 135 | 0.0 | 3.2 | 0.00 | 0.00 | 0.00 | 73 | 1006.2 |
| 20260507230221 | 10 | 149 | 1.6 | 3.2 | 0.00 | 0.00 | 0.00 | 73 | 1006.5 |
| 20260507225406 | 10 | 211 | 3.2 | 6.4 | 0.00 | 0.00 | 0.00 | 72 | 1006.4 |
| 20260507224514 | 10 | 217 | 4.8 | 6.4 | 0.00 | 0.00 | 0.00 | 72 | 1006.2 |
| 20260507223817 | 10 | 210 | 4.8 | 6.4 | 0.00 | 0.00 | 0.00 | 72 | 1006.2 |
| 20260507222707 | 10 | 219 | 3.2 | 6.4 | 0.00 | 0.00 | 0.00 | 72 | 1006.2 |
| 20260507221806 | 10 | 191 | 1.6 | 3.2 | 0.00 | 0.00 | 0.00 | 72 | 1006.1 |
| 20260507220906 | 10 | 193 | 1.6 | 3.2 | 0.00 | 0.00 | 0.00 | 72 | 1006.0 |
| 20260507220010 | 10 | 207 | 4.8 | 6.4 | 0.00 | 0.00 | 0.00 | 71 | 1006.1 |
| 20260507215618 | 10 | 216 | 4.8 | 6.4 | 0.00 | 0.00 | 0.00 | 71 | 1006.2 |
| 20260507214510 | 11 | 204 | 3.2 | 6.4 | 0.00 | 0.00 | 0.00 | 71 | 1006.0 |
| 20260507213607 | 11 | 202 | 3.2 | 3.2 | 0.00 | 0.00 | 0.00 | 71 | 1006.1 |
| 20260507212710 | 11 | 195 | 4.8 | 6.4 | 0.00 | 0.00 | 0.00 | 71 | 1006.0 |
| 20260507211806 | 11 | 191 | 4.8 | 6.4 | 0.00 | 0.00 | 0.00 | 71 | 1006.2 |
| 20260507210907 | 11 | 202 | 4.8 | 6.4 | 0.00 | 0.00 | 0.00 | 71 | 1006.0 |
| 20260507210007 | 11 | 183 | 6.4 | 6.4 | 0.00 | 0.00 | 0.00 | 71 | 1006.0 |
| 20260507205404 | 11 | 179 | 4.8 | 6.4 | 0.00 | 0.00 | 0.00 | 72 | 1006.0 |
| 20260507204506 | 11 | 181 | 1.6 | 3.2 | 0.00 | 0.00 | 0.00 | 72 | 1005.8 |
| 20260507203608 | 11 | 243 | 0.0 | 3.2 | 0.00 | 0.00 | 0.00 | 71 | 1005.7 |
| 20260507202706 | 11 | 216 | 3.2 | 3.2 | 0.00 | 0.00 | 0.00 | 70 | 1005.8 |
| 20260507201807 | 12 | 194 | 3.2 | 6.4 | 0.00 | 0.00 | 0.00 | 68 | 1005.4 |
| 20260507200910 | 12 | 198 | 4.8 | 6.4 | 0.00 | 0.00 | 0.00 | 68 | 1005.5 |
| 20260507200011 | 12 | 203 | 4.8 | 6.4 | 0.00 | 0.00 | 0.00 | 68 | 1005.5 |
| 20260507195408 | 12 | 211 | 3.2 | 6.4 | 0.00 | 0.00 | 0.00 | 68 | 1005.3 |
| 20260507194507 | 12 | 211 | 3.2 | 6.4 | 0.00 | 0.00 | 0.00 | 69 | 1005.2 |
| 20260507193606 | 12 | 224 | 1.6 | 3.2 | 0.00 | 0.00 | 0.00 | 70 | 1005.4 |
| 20260507192707 | 13 | 185 | 3.2 | 3.2 | 0.00 | 0.00 | 0.00 | 69 | 1005.1 |
| 20260507192018 | 13 | 177 | 3.2 | 6.4 | 0.00 | 0.00 | 0.00 | 69 | 1005.4 |
| 20260507190907 | 13 | 157 | 3.2 | 6.4 | 0.00 | 0.00 | 0.00 | 68 | 1005.2 |
| 20260507190006 | 13 | 171 | 4.8 | 6.4 | 0.00 | 0.00 | 0.00 | 67 | 1005.2 |
| 20260507185406 | 13 | 176 | 6.4 | 6.4 | 0.00 | 0.00 | 0.00 | 66 | 1005.1 |
| 20260507184506 | 13 | 199 | 4.8 | 6.4 | 0.00 | 0.00 | 0.00 | 66 | 1005.1 |
| 20260507183607 | 13 | 199 | 3.2 | 6.4 | 0.00 | 0.00 | 0.00 | 66 | 1005.0 |
| 20260507182917 | 13 | 210 | 6.4 | 11.3 | 0.00 | 0.00 | 0.00 | 67 | 1004.9 |
| 20260507182019 | 14 | 186 | 4.8 | 6.4 | 0.00 | 0.00 | 0.00 | 67 | 1005.1 |
| 20260507180907 | 13 | 207 | 6.4 | 9.7 | 0.00 | 0.00 | 0.00 | 69 | 1004.9 |
| 20260507180006 | 13 | 230 | 8.0 | 11.3 | 0.00 | 0.00 | 0.00 | 70 | 1005.1 |
| 20260507175405 | 13 | 223 | 8.0 | 11.3 | 0.00 | 0.00 | 0.00 | 70 | 1004.9 |
| 20260507174717 | 12 | 216 | 4.8 | 9.7 | 0.00 | 0.00 | 0.00 | 70 | 1004.9 |
| 20260507173815 | 12 | 243 | 4.8 | 6.4 | 0.00 | 0.00 | 0.00 | 72 | 1004.9 |
| 20260507172917 | 12 | 261 | 8.0 | 9.7 | 0.00 | 0.00 | 0.00 | 72 | 1005.2 |
| 20260507171808 | 12 | 243 | 6.4 | 6.4 | 0.00 | 0.00 | 0.00 | 71 | 1005.1 |
| 20260507170905 | 12 | 246 | 6.4 | 9.7 | 0.00 | 0.00 | 0.00 | 71 | 1004.9 |
| 20260507170009 | 12 | 266 | 11.3 | 17.7 | 0.00 | 0.00 | 0.00 | 71 | 1004.9 |
| 20260507165407 | 12 | 271 | 11.3 | 17.7 | 0.00 | 0.00 | 0.00 | 70 | 1005.2 |
| 20260507164505 | 12 | 205 | 12.9 | 17.7 | 0.00 | 0.00 | 0.00 | 68 | 1005.2 |
| 20260507163606 | 13 | 159 | 9.7 | 17.7 | 0.00 | 0.00 | 0.00 | 62 | 1005.1 |
| 20260507162923 | 13 | 164 | 9.7 | 12.9 | 0.00 | 0.00 | 0.00 | 61 | 1004.6 |
| 20260507161809 | 14 | 160 | 9.7 | 14.5 | 0.00 | 0.00 | 0.00 | 60 | 1004.7 |
| 20260507160907 | 14 | 134 | 11.3 | 14.5 | 0.00 | 0.00 | 0.00 | 60 | 1004.8 |
| 20260507160006 | 14 | 132 | 11.3 | 14.5 | 0.00 | 0.00 | 0.00 | 60 | 1004.7 |
| 20260507155405 | 14 | 138 | 12.9 | 14.5 | 0.00 | 0.00 | 0.00 | 60 | 1004.8 |
| 20260507154507 | 14 | 149 | 11.3 | 14.5 | 0.00 | 0.00 | 0.00 | 59 | 1004.7 |
| 20260507153605 | 14 | 177 | 9.7 | 14.5 | 0.00 | 0.00 | 0.00 | 58 | 1004.7 |
| 20260507152918 | 15 | 153 | 8.0 | 14.5 | 0.00 | 0.00 | 0.00 | 59 | 1004.6 |
| 20260507151805 | 14 | 134 | 11.3 | 14.5 | 0.00 | 0.00 | 0.00 | 61 | 1004.7 |
| 20260507150906 | 14 | 132 | 8.0 | 12.9 | 0.00 | 0.00 | 0.00 | 61 | 1005.0 |
| 20260507150007 | 14 | 145 | 8.0 | 11.3 | 0.00 | 0.00 | 0.00 | 62 | 1004.9 |
| 20260507145407 | 13 | 135 | 9.7 | 12.9 | 0.00 | 0.00 | 0.00 | 62 | 1004.9 |
| 20260507144508 | 13 | 137 | 11.3 | 17.7 | 0.00 | 0.00 | 0.00 | 61 | 1005.0 |
| 20260507143822 | 13 | 146 | 11.3 | 20.9 | 0.00 | 0.00 | 0.00 | 60 | 1005.1 |
| 20260507142711 | 13 | 131 | 11.3 | 17.7 | 0.00 | 0.00 | 0.00 | 61 | 1005.2 |
| 20260507141805 | 13 | 134 | 11.3 | 17.7 | 0.00 | 0.00 | 0.00 | 60 | 1005.3 |
| 20260507140910 | 14 | 130 | 14.5 | 17.7 | 0.00 | 0.00 | 0.00 | 60 | 1005.5 |
| 20260507140008 | 14 | 122 | 14.5 | 20.9 | 0.00 | 0.00 | 0.00 | 60 | 1005.2 |
| 20260507135407 | 14 | 135 | 16.1 | 24.1 | 0.00 | 0.00 | 0.00 | 60 | 1005.4 |
| 20260507134715 | 14 | 161 | 16.1 | 24.1 | 0.00 | 0.00 | 0.00 | 60 | 1005.5 |
| 20260507133605 | 15 | 130 | 17.7 | 27.4 | 0.00 | 0.00 | 0.00 | 58 | 1005.4 |
| 20260507132920 | 15 | 141 | 17.7 | 27.4 | 0.00 | 0.00 | 0.00 | 59 | 1005.6 |
| 20260507131805 | 15 | 129 | 14.5 | 17.7 | 0.00 | 0.00 | 0.00 | 60 | 1005.6 |
| 20260507130907 | 15 | 114 | 9.7 | 17.7 | 0.00 | 0.00 | 0.00 | 57 | 1005.5 |
| 20260507130006 | 14 | 117 | 12.9 | 17.7 | 0.00 | 0.00 | 0.00 | 60 | 1005.8 |
| 20260507125407 | 13 | 134 | 11.3 | 17.7 | 0.00 | 0.00 | 0.00 | 60 | 1005.6 |
| 20260507124507 | 13 | 133 | 9.7 | 12.9 | 0.00 | 0.00 | 0.00 | 60 | 1005.7 |
| 20260507123818 | 13 | 127 | 11.3 | 14.5 | 0.00 | 0.00 | 0.00 | 60 | 1005.7 |
| 20260507122707 | 13 | 161 | 9.7 | 14.5 | 0.00 | 0.00 | 0.00 | 59 | 1005.9 |
| 20260507121806 | 13 | 123 | 12.9 | 17.7 | 0.00 | 0.00 | 0.00 | 58 | 1006.0 |
| 20260507120910 | 13 | 129 | 11.3 | 17.7 | 0.00 | 0.00 | 0.00 | 62 | 1006.0 |
| 20260507120223 | 13 | 130 | 16.1 | 22.5 | 0.00 | 0.00 | 0.00 | 62 | 1006.0 |
| 20260507115406 | 12 | 136 | 14.5 | 20.9 | 0.00 | 0.00 | 0.00 | 61 | 1006.2 |
| 20260507114505 | 12 | 187 | 14.5 | 20.9 | 0.00 | 0.00 | 0.00 | 64 | 1005.9 |
| 20260507113605 | 12 | 139 | 16.1 | 22.5 | 0.00 | 0.00 | 0.00 | 64 | 1006.0 |
| 20260507112707 | 12 | 134 | 17.7 | 20.9 | 0.00 | 0.00 | 0.00 | 65 | 1006.2 |
| 20260507111808 | 12 | 141 | 17.7 | 20.9 | 0.00 | 0.00 | 0.00 | 66 | 1006.0 |
| 20260507110906 | 11 | 130 | 17.7 | 24.1 | 0.00 | 0.00 | 0.00 | 67 | 1006.1 |
| 20260507110006 | 11 | 138 | 16.1 | 22.5 | 0.00 | 0.00 | 0.00 | 68 | 1006.2 |
| 20260507105405 | 11 | 142 | 16.1 | 20.9 | 0.00 | 0.00 | 0.00 | 70 | 1006.0 |
| 20260507104508 | 11 | 139 | 11.3 | 17.7 | 0.00 | 0.00 | 0.00 | 72 | 1006.2 |
| 20260507103605 | 10 | 140 | 12.9 | 17.7 | 0.00 | 0.00 | 0.00 | 73 | 1006.4 |
| 20260507102705 | 10 | 128 | 12.9 | 17.7 | 0.00 | 0.00 | 0.00 | 74 | 1006.3 |
| 20260507101805 | 10 | 130 | 11.3 | 12.9 | 0.00 | 0.00 | 0.00 | 75 | 1006.8 |
| 20260507100906 | 9 | 125 | 9.7 | 14.5 | 0.00 | 0.00 | 0.00 | 76 | 1006.5 |
| 20260507100005 | 9 | 119 | 11.3 | 17.7 | 0.00 | 0.00 | 0.00 | 78 | 1006.5 |
| 20260507095620 | 9 | 118 | 11.3 | 17.7 | 0.00 | 0.00 | 0.00 | 78 | 1006.6 |
| 20260507094508 | 8 | 115 | 9.7 | 11.3 | 0.00 | 0.00 | 0.00 | 79 | 1006.8 |
| 20260507093815 | 8 | 113 | 9.7 | 11.3 | 0.00 | 0.00 | 0.00 | 80 | 1006.7 |
| 20260507092705 | 8 | 121 | 8.0 | 14.5 | 0.00 | 0.00 | 0.00 | 80 | 1006.8 |
| 20260507091808 | 8 | 129 | 11.3 | 14.5 | 0.00 | 0.00 | 0.00 | 81 | 1006.8 |